FW0166 Weather Reports


Display with metric or nautical units.
time (UTC)temp
F
wind
direction
speed
MPH
gust
MPH
rain 1hr
in
rain 24hr
in
rain mn
in
humidity
%
barometer
mb
20200707201821 91 65 3.0 5.0 0.00 0.00 0.00 68 1013.4
20200707201555 90 31 1.0 5.0 0.00 0.00 0.00 69 1012.4
20200707201319 91 360 2.0 5.0 0.00 0.00 0.00 69 1013.4
20200707200314 91 39 1.0 5.0 0.00 0.00 0.00 69 1013.3
20200707200005 90 318 2.0 5.0 0.00 0.00 0.00 70 1012.4
20200707195831 91 59 3.0 5.0 0.00 0.00 0.00 68 1013.3
20200707195330 91 23 2.0 5.0 0.00 0.00 0.00 70 1013.4
20200707194830 91 79 1.0 5.0 0.00 0.00 0.00 68 1013.5
20200707194653 90 356 1.0 5.0 0.00 0.00 0.00 69 1012.6
20200707194329 91 37 2.0 5.0 0.00 0.00 0.00 68 1013.5
20200707193829 91 23 2.0 5.0 0.00 0.00 0.00 66 1013.5
20200707193323 91 300 1.0 6.0 0.00 0.00 0.00 67 1013.5
20200707193050 90 53 1.0 6.0 0.00 0.00 0.00 69 1012.7
20200707192821 91 28 3.0 6.0 0.00 0.00 0.00 67 1013.7
20200707192317 90 311 1.0 6.0 0.00 0.00 0.00 73 1013.7
20200707191813 90 68 3.0 6.0 0.00 0.00 0.00 71 1013.8
20200707191517 90 65 2.0 6.0 0.00 0.00 0.00 70 1012.7
20200707191328 91 43 2.0 6.0 0.00 0.00 0.00 69 1013.8
20200707190824 92 50 3.0 5.0 0.00 0.00 0.00 68 1013.9
20200707190319 92 60 1.0 3.0 0.00 0.00 0.00 67 1014.0
20200707190154 91 56 0.0 4.0 0.00 0.00 0.00 70 1013.3
20200707185816 91 30 0.0 4.0 0.00 0.00 0.00 66 1014.0
20200707185317 91 285 1.0 5.0 0.00 0.00 0.00 69 1014.2
20200707184830 91 323 2.0 5.0 0.00 0.00 0.00 68 1014.3
20200707184547 90 5 2.0 5.0 0.00 0.00 0.00 69 1013.4
20200707184328 91 29 0.0 3.0 0.00 0.00 0.00 72 1014.3
20200707183826 91 314 1.0 5.0 0.00 0.00 0.00 67 1014.5
20200707183325 90 56 2.0 5.0 0.00 0.00 0.00 69 1014.7
20200707183004 90 311 3.0 6.0 0.00 0.00 0.00 71 1013.7
20200707182820 90 285 2.0 6.0 0.00 0.00 0.00 68 1014.7
20200707182316 90 46 3.0 6.0 0.00 0.00 0.00 68 1014.9
20200707181813 91 305 2.0 7.0 0.00 0.00 0.00 70 1014.9
20200707181632 90 347 1.0 7.0 0.00 0.00 0.00 70 1014.0
20200707181330 91 295 2.0 7.0 0.00 0.00 0.00 70 1014.9
20200707180827 90 71 0.0 4.0 0.00 0.00 0.00 73 1015.0
20200707180325 90 40 1.0 4.0 0.00 0.00 0.00 70 1015.1
20200707180103 89 35 1.0 6.0 0.00 0.00 0.00 71 1014.2
20200707175822 89 70 2.0 6.0 0.00 0.00 0.00 72 1015.1
20200707175322 90 9 3.0 6.0 0.00 0.00 0.00 70 1015.3
20200707174820 90 72 2.0 5.0 0.00 0.00 0.00 72 1015.3
20200707174514 89 46 0.0 4.0 0.00 0.00 0.00 71 1014.5
20200707174316 89 60 0.0 4.0 0.00 0.00 0.00 71 1015.4
20200707173813 89 69 2.0 5.0 0.00 0.00 0.00 69 1015.4
20200707173329 89 346 2.0 5.0 0.00 0.00 0.00 71 1015.5
20200707173236 88 43 2.0 5.0 0.00 0.00 0.00 69 1014.6
20200707172828 89 345 2.0 5.0 0.00 0.00 0.00 72 1015.7
20200707172321 88 302 2.0 4.0 0.00 0.00 0.00 72 1015.7
20200707171819 89 65 2.0 4.0 0.00 0.00 0.00 74 1015.9
20200707171600 88 27 2.0 6.0 0.00 0.00 0.00 72 1014.9
20200707171313 89 40 2.0 6.0 0.00 0.00 0.00 73 1015.9
20200707170831 88 317 3.0 6.0 0.00 0.00 0.00 71 1015.9
20200707170332 88 72 1.0 5.0 0.00 0.00 0.00 73 1015.9
20200707165823 88 51 2.0 5.0 0.00 0.00 0.00 73 1016.0
20200707165320 88 59 2.0 5.0 0.00 0.00 0.00 74 1016.0
20200707164818 88 70 2.0 5.0 0.00 0.00 0.00 74 1016.0
20200707164648 87 58 0.0 4.0 0.00 0.00 0.00 76 1015.1
20200707164315 88 57 1.0 4.0 0.00 0.00 0.00 77 1016.1
20200707163815 87 68 2.0 5.0 0.00 0.00 0.00 75 1016.1
20200707163332 87 39 1.0 5.0 0.00 0.00 0.00 75 1016.1
20200707163024 87 70 1.0 5.0 0.00 0.00 0.00 76 1015.2
20200707162827 87 89 2.0 5.0 0.00 0.00 0.00 75 1016.1
20200707162326 87 71 2.0 4.0 0.00 0.00 0.00 76 1016.1
20200707161825 87 342 0.0 4.0 0.00 0.00 0.00 78 1016.1
20200707161314 87 90 1.0 4.0 0.00 0.00 0.00 76 1016.1
20200707160814 87 55 2.0 3.0 0.00 0.00 0.00 77 1016.0
20200707160411 87 65 1.0 3.0 0.00 0.00 0.00 78 1016.1
20200707160150 87 72 0.0 4.0 0.00 0.00 0.00 76 1015.2
20200707155824 87 356 0.0 4.0 0.00 0.00 0.00 75 1016.0
20200707155323 87 45 2.0 4.0 0.00 0.00 0.00 72 1016.1
20200707154822 88 60 0.0 2.0 0.00 0.00 0.00 72 1016.1
20200707154540 87 324 0.0 2.0 0.00 0.00 0.00 73 1015.3
20200707154317 88 343 0.0 2.0 0.00 0.00 0.00 72 1016.1
20200707153814 87 11 1.0 2.0 0.00 0.00 0.00 73 1016.1
20200707153331 86 108 0.0 2.0 0.00 0.00 0.00 75 1016.1
20200707153100 86 107 0.0 2.0 0.00 0.00 0.00 74 1015.2
20200707152827 86 131 1.0 2.0 0.00 0.00 0.00 73 1016.1
20200707151823 86 51 1.0 2.0 0.00 0.00 0.00 74 1016.0
20200707151701 85 66 0.0 2.0 0.00 0.00 0.00 75 1015.1
20200707151317 85 66 0.0 4.0 0.00 0.00 0.00 75 1016.1
20200707150314 84 348 0.0 2.0 0.00 0.00 0.00 78 1016.0
20200707150143 84 276 0.0 2.0 0.00 0.00 0.00 77 1015.1
20200707145829 84 334 0.0 2.0 0.00 0.00 0.00 77 1016.0
20200707145328 84 66 0.0 2.0 0.00 0.00 0.00 78 1016.0
20200707144826 84 93 0.0 3.0 0.00 0.00 0.00 78 1016.0
20200707144624 84 113 0.0 3.0 0.00 0.00 0.00 78 1015.1
20200707144321 85 118 1.0 3.0 0.00 0.00 0.00 77 1015.8
20200707143821 84 170 0.0 2.0 0.00 0.00 0.00 80 1015.9
20200707143314 84 113 0.0 3.0 0.00 0.00 0.00 80 1015.8
20200707143014 82 113 0.0 3.0 0.00 0.00 0.00 80 1014.9
20200707142830 83 194 0.0 4.0 0.00 0.00 0.00 80 1015.8
20200707142329 83 134 1.0 4.0 0.00 0.00 0.00 79 1015.8
20200707141827 83 250 1.0 4.0 0.00 0.00 0.00 80 1015.8
20200707141716 82 164 1.0 3.0 0.00 0.00 0.00 81 1014.9
20200707141325 82 155 1.0 4.0 0.00 0.00 0.00 80 1015.7
20200707140822 82 234 1.0 4.0 0.00 0.00 0.00 80 1015.7
20200707140320 83 197 1.0 3.0 0.00 0.00 0.00 79 1015.7
20200707140052 82 195 0.0 2.0 0.00 0.00 0.00 80 1014.9
20200707135816 82 195 0.0 3.0 0.00 0.00 0.00 79 1015.7
20200707135313 82 144 0.0 4.0 0.00 0.00 0.00 79 1015.8
20200707134832 82 135 1.0 4.0 0.00 0.00 0.00 79 1015.7
20200707134523 81 160 0.0 1.0 0.00 0.00 0.00 79 1014.7
20200707134330 81 160 0.0 2.0 0.00 0.00 0.00 81 1015.7
20200707133827 81 116 0.0 2.0 0.00 0.00 0.00 79 1015.6
20200707133326 80 139 0.0 3.0 0.00 0.00 0.00 80 1015.5
20200707133259 80 137 0.0 3.0 0.00 0.00 0.00 79 1014.7
20200707132827 81 138 2.0 3.0 0.00 0.00 0.00 78 1015.5
20200707132424 81 163 0.0 3.0 0.00 0.00 0.00 79 1015.5
20200707131831 80 146 0.0 3.0 0.00 0.00 0.00 82 1015.5
20200707131601 79 146 0.0 0.0 0.00 0.00 0.00 82 1014.6
20200707131329 79 204 0.0 0.0 0.00 0.00 0.00 82 1015.4
20200707130824 78 144 0.0 0.0 0.00 0.00 0.00 85 1015.4
20200707130323 78 131 0.0 2.0 0.00 0.00 0.00 85 1015.4
20200707130116 77 115 0.0 2.0 0.00 0.00 0.00 86 1014.6
20200707125822 77 96 0.0 2.0 0.00 0.00 0.00 86 1015.5
20200707125318 76 89 1.0 2.0 0.00 0.00 0.00 87 1015.3
20200707124814 76 64 2.0 3.0 0.00 0.00 0.00 87 1015.2
20200707124522 76 89 0.0 3.0 0.00 0.00 0.00 88 1014.5
20200707124331 76 108 0.0 4.0 0.00 0.00 0.00 89 1015.2
20200707123831 75 103 0.0 4.0 0.00 0.00 0.00 89 1015.2
20200707123326 76 70 1.0 4.0 0.00 0.00 0.00 89 1015.2
20200707123222 75 89 1.0 2.0 0.00 0.00 0.00 89 1014.3
20200707122825 76 82 1.0 2.0 0.00 0.00 0.00 88 1015.2
20200707122322 76 92 0.0 1.0 0.00 0.00 0.00 89 1015.1
20200707121816 75 27 0.0 0.0 0.00 0.00 0.00 93 1015.0
20200707121611 74 27 0.0 0.0 0.00 0.00 0.00 93 1014.1
20200707121313 75 39 0.0 0.0 0.00 0.00 0.00 94 1015.0
20200707120911 74 33 0.0 0.0 0.00 0.00 0.00 95 1014.9
20200707120323 74 35 0.0 0.0 0.00 0.00 0.00 97 1015.0
20200707120046 73 35 0.0 0.0 0.00 0.00 0.00 97 1014.2
20200707115840 73 35 0.0 0.0 0.00 0.00 0.00 97 1015.0
20200707115331 73 51 0.0 0.0 0.00 0.00 0.00 98 1015.0
20200707114831 72 51 0.0 0.0 0.00 0.00 0.00 99 1014.9
20200707114547 71 32 0.0 0.0 0.00 0.00 0.00 98 1014.0
20200707114328 72 32 0.0 0.0 0.00 0.00 0.00 98 1014.9
20200707113827 71 97 0.0 0.0 0.00 0.00 0.00 99 1014.7
20200707113323 71 101 0.0 0.0 0.00 0.00 0.00 99 1014.7
20200707113120 70 143 0.0 0.0 0.00 0.00 0.00 99 1013.8
20200707112818 71 143 0.0 0.0 0.00 0.00 0.00 99 1014.7
20200707112314 71 153 0.0 0.0 0.00 0.00 0.00 99 1014.6
20200707111813 70 153 0.0 0.0 0.00 0.00 0.00 99 1014.5
20200707111548 69 153 0.0 0.0 0.00 0.00 0.00 99 1013.7
20200707111331 70 153 0.0 0.0 0.00 0.00 0.00 99 1014.6
20200707110829 70 153 0.0 0.0 0.00 0.00 0.00 99 1014.5
20200707110325 70 153 0.0 0.0 0.00 0.00 0.00 99 1014.4
20200707105820 69 153 0.0 0.0 0.00 0.00 0.00 99 1014.4
20200707105317 69 153 0.0 0.0 0.00 0.00 0.00 99 1014.4
20200707104815 69 153 0.0 0.0 0.00 0.00 0.00 99 1014.3
20200707104730 69 153 0.0 0.0 0.00 0.00 0.00 99 1013.5
20200707104313 69 153 0.0 0.0 0.00 0.00 0.00 99 1014.3
20200707103831 70 153 0.0 0.0 0.00 0.00 0.00 99 1014.3
20200707103327 70 153 0.0 0.0 0.00 0.00 0.00 99 1014.3
20200707103016 69 153 0.0 0.0 0.00 0.00 0.00 99 1013.4
20200707102825 70 153 0.0 0.0 0.00 0.00 0.00 99 1014.2
20200707102321 70 153 0.0 0.0 0.00 0.00 0.00 99 1014.2
20200707101821 70 153 0.0 0.0 0.00 0.00 0.00 99 1014.3
20200707101626 69 153 0.0 0.0 0.00 0.00 0.00 99 1013.4
20200707101319 70 153 0.0 0.0 0.00 0.00 0.00 99 1014.3
20200707100836 70 153 0.0 0.0 0.00 0.00 0.00 99 1014.2
20200707100329 70 153 0.0 0.0 0.00 0.00 0.00 98 1014.1
20200707100116 69 153 0.0 0.0 0.00 0.00 0.00 98 1013.3
20200707095819 70 153 0.0 0.0 0.00 0.00 0.00 98 1014.3
20200707095322 70 153 0.0 0.0 0.00 0.00 0.00 98 1014.2
20200707094815 70 153 0.0 0.0 0.00 0.00 0.00 98 1014.2
20200707094520 70 153 0.0 0.0 0.00 0.00 0.00 98 1013.3
20200707094315 70 153 0.0 0.0 0.00 0.00 0.00 98 1014.1
20200707093831 70 153 0.0 0.0 0.00 0.00 0.00 98 1014.2
20200707093328 70 153 0.0 0.0 0.00 0.00 0.00 98 1014.2
20200707093250 70 153 0.0 0.0 0.00 0.00 0.00 98 1013.4
20200707092828 70 153 0.0 0.0 0.00 0.00 0.00 98 1014.2
20200707092327 70 153 0.0 0.0 0.00 0.00 0.00 98 1014.2
20200707091822 70 153 0.0 0.0 0.00 0.00 0.00 98 1014.2
20200707091606 70 153 0.0 0.0 0.00 0.00 0.00 98 1013.4
20200707091313 70 153 0.0 0.0 0.00 0.00 0.00 98 1014.2
20200707090831 70 153 0.0 0.0 0.00 0.00 0.00 98 1014.3
20200707090332 70 153 0.0 0.0 0.00 0.00 0.00 98 1014.3
20200707085824 71 153 0.0 0.0 0.00 0.00 0.00 98 1014.3
20200707085320 71 153 0.0 0.0 0.00 0.00 0.00 98 1014.2
20200707084818 71 153 0.0 0.0 0.00 0.00 0.00 98 1014.1
20200707084544 70 153 0.0 0.0 0.00 0.00 0.00 98 1013.2
20200707084315 71 153 0.0 0.0 0.00 0.00 0.00 98 1014.1
20200707083813 71 156 0.0 0.0 0.00 0.00 0.00 98 1014.2
20200707083327 71 156 0.0 0.0 0.00 0.00 0.00 98 1014.2
20200707083021 70 155 0.0 0.0 0.00 0.00 0.00 98 1013.3
20200707082825 71 156 0.0 0.0 0.00 0.00 0.00 98 1014.2
20200707082320 71 156 0.0 0.0 0.00 0.00 0.00 98 1014.3
20200707081822 71 156 0.0 0.0 0.00 0.00 0.00 98 1014.3
20200707081721 71 156 0.0 0.0 0.00 0.00 0.00 98 1013.5
20200707081318 71 156 0.0 0.0 0.00 0.00 0.00 98 1014.4
20200707080821 71 156 0.0 0.0 0.00 0.00 0.00 98 1014.4
20200707080316 71 156 0.0 0.0 0.00 0.00 0.00 98 1014.3
20200707080107 71 156 0.0 0.0 0.00 0.00 0.00 98 1013.5
20200707075814 71 156 0.0 0.0 0.00 0.00 0.00 98 1014.3
20200707075330 71 184 0.0 0.0 0.00 0.01 0.00 98 1014.3
20200707074828 71 184 0.0 0.0 0.00 0.01 0.00 98 1014.3
20200707074637 71 184 0.0 0.0 0.00 0.01 0.00 98 1013.5
20200707074327 71 184 0.0 0.0 0.00 0.01 0.00 98 1014.4
20200707073824 72 172 0.0 0.0 0.00 0.01 0.00 98 1014.3
20200707073326 71 157 0.0 0.0 0.00 0.01 0.00 98 1014.3
20200707073225 71 157 0.0 0.0 0.00 0.01 0.00 98 1013.4
20200707072819 71 157 0.0 0.0 0.00 0.01 0.00 98 1014.1
20200707072323 71 157 0.0 0.0 0.00 0.01 0.00 98 1014.1
20200707071817 72 177 0.0 0.0 0.00 0.01 0.00 98 1014.1
20200707071542 71 177 0.0 0.0 0.00 0.01 0.00 98 1013.2
20200707071315 71 177 0.0 0.0 0.00 0.01 0.00 98 1014.2
20200707070813 71 177 0.0 0.0 0.00 0.01 0.00 97 1014.2
20200707070333 72 177 0.0 0.0 0.00 0.01 0.00 97 1014.1
20200707070015 71 177 0.0 0.0 0.00 0.01 0.00 97 1013.3
20200707065828 72 177 0.0 0.0 0.00 0.01 0.00 97 1014.1
20200707065325 72 124 0.0 0.0 0.00 0.01 0.00 98 1014.1
20200707064819 72 124 0.0 0.0 0.00 0.01 0.00 97 1014.2
20200707064658 71 124 0.0 0.0 0.00 0.01 0.00 97 1013.4
20200707064315 72 124 0.0 0.0 0.00 0.01 0.00 97 1014.4
20200707063831 72 124 0.0 0.0 0.00 0.01 0.00 97 1014.4
20200707063330 72 190 0.0 0.0 0.00 0.01 0.00 97 1014.5
20200707063026 72 190 0.0 0.0 0.00 0.01 0.00 97 1013.6
20200707062828 72 190 0.0 0.0 0.00 0.01 0.00 97 1014.5
20200707061823 73 160 0.0 1.0 0.00 0.01 0.00 97 1014.5
20200707061321 73 95 0.0 0.0 0.00 0.01 0.00 97 1014.5
20200707060821 73 95 0.0 0.0 0.00 0.01 0.00 97 1014.7
20200707060318 73 58 0.0 2.0 0.00 0.01 0.00 97 1014.6
20200707060058 73 58 0.0 2.0 0.00 0.01 0.00 97 1013.6
20200707055815 73 58 0.0 2.0 0.00 0.01 0.00 97 1014.6
20200707055312 73 53 0.0 0.0 0.00 0.01 0.00 97 1014.7
20200707054831 73 53 0.0 1.0 0.00 0.01 0.00 97 1014.7
20200707054553 73 53 0.0 1.0 0.00 0.01 0.00 97 1014.0
20200707054330 73 53 0.0 1.0 0.00 0.01 0.00 97 1014.8
20200707053823 73 53 0.0 2.0 0.00 0.01 0.00 97 1014.8
20200707053321 73 53 0.0 3.0 0.00 0.01 0.00 97 1014.9
20200707052821 74 51 1.0 3.0 0.00 0.01 0.00 97 1014.9
20200707052319 74 129 0.0 1.0 0.00 0.01 0.00 97 1014.9
20200707051823 74 137 0.0 1.0 0.00 0.01 0.00 97 1014.9
20200707051657 73 167 0.0 0.0 0.00 0.01 0.00 97 1014.0
20200707051314 74 167 0.0 0.0 0.00 0.01 0.00 97 1014.8
20200707050831 74 167 0.0 0.0 0.00 0.01 0.00 97 1014.9
20200707050329 74 145 0.0 0.0 0.00 0.01 0.00 97 1014.9
20200707050052 74 146 0.0 0.0 0.00 0.01 0.00 97 1014.1
20200707045821 74 146 0.0 0.0 0.00 0.01 0.00 97 1015.0
20200707045334 74 145 0.0 0.0 0.00 0.01 0.01 97 1015.0
20200707044830 74 146 0.0 0.0 0.00 0.01 0.01 97 1015.1
20200707044633 74 146 0.0 0.0 0.00 0.01 0.01 97 1014.3
20200707044326 75 145 0.0 0.0 0.00 0.01 0.01 97 1015.2
20200707043823 75 145 0.0 0.0 0.00 0.01 0.01 97 1015.3
20200707043319 75 145 0.0 0.0 0.00 0.01 0.01 97 1015.3
20200707043115 74 145 0.0 0.0 0.00 0.01 0.01 97 1014.6
20200707042820 75 145 0.0 0.0 0.00 0.01 0.01 96 1015.4
20200707042316 75 146 0.0 0.0 0.00 0.01 0.01 96 1015.3
20200707041814 75 146 0.0 0.0 0.00 0.01 0.01 97 1015.1
20200707041540 74 145 0.0 0.0 0.00 0.01 0.01 96 1014.3
20200707041333 75 145 0.0 0.0 0.00 0.01 0.01 96 1015.2
20200707040828 75 145 0.0 0.0 0.00 0.01 0.01 96 1015.2
20200707040324 75 145 0.0 0.0 0.00 0.01 0.01 96 1015.2
20200707040113 75 145 0.0 0.0 0.00 0.01 0.01 96 1014.3
20200707035821 75 145 0.0 0.0 0.00 0.01 0.01 96 1015.2
20200707035315 76 145 0.0 0.0 0.00 0.01 0.01 95 1014.9
20200707034831 76 145 0.0 0.0 0.00 0.01 0.01 96 1014.8
20200707034542 75 145 0.0 0.0 0.00 0.01 0.01 95 1014.1
20200707034329 76 145 0.0 0.0 0.00 0.01 0.01 95 1014.9
20200707033830 76 145 0.0 0.0 0.00 0.01 0.01 95 1014.9
20200707033321 76 145 0.0 0.0 0.00 0.01 0.01 95 1014.8
20200707033143 76 145 0.0 1.0 0.00 0.01 0.01 95 1014.0
20200707032818 76 145 0.0 1.0 0.00 0.01 0.01 94 1014.9
20200707032316 77 145 0.0 1.0 0.00 0.01 0.01 95 1014.9
20200707031811 76 155 0.0 0.0 0.00 0.01 0.01 94 1013.9
20200707031325 77 155 0.0 0.0 0.00 0.01 0.01 94 1014.8
20200707030825 77 155 0.0 0.0 0.00 0.01 0.01 94 1014.8
20200707030322 77 155 0.0 0.0 0.00 0.01 0.01 94 1014.7
20200707030109 77 155 0.0 0.0 0.00 0.01 0.01 94 1013.9
20200707025818 78 155 0.0 0.0 0.00 0.01 0.01 94 1014.7
20200707025316 78 155 0.0 0.0 0.00 0.03 0.01 94 1014.5
20200707024815 78 155 0.0 0.0 0.00 0.03 0.01 93 1014.6
20200707024515 78 155 0.0 0.0 0.00 0.03 0.01 93 1013.8
20200707024313 78 155 0.0 0.0 0.00 0.03 0.01 93 1014.6
20200707023828 78 155 0.0 0.0 0.00 0.03 0.01 93 1014.6
20200707023326 79 155 0.0 0.0 0.00 0.03 0.01 93 1014.5
20200707023208 78 155 0.0 0.0 0.00 0.03 0.01 93 1013.5
20200707022824 79 155 0.0 0.0 0.00 0.03 0.01 93 1014.5
20200707022325 79 155 0.0 0.0 0.00 0.03 0.01 93 1014.5
20200707021819 79 155 0.0 1.0 0.00 0.03 0.01 93 1014.5
20200707021550 79 155 0.0 1.0 0.00 0.03 0.01 92 1013.6
20200707021316 80 155 0.0 1.0 0.00 0.03 0.01 92 1014.3
20200707020814 80 65 0.0 0.0 0.00 0.03 0.01 91 1014.3
20200707020331 80 65 0.0 0.0 0.00 0.03 0.01 90 1014.3
20200707020022 80 65 0.0 0.0 0.00 0.03 0.01 90 1013.4
20200707015830 81 65 0.0 0.0 0.00 0.03 0.01 90 1014.3
20200707015332 81 65 0.0 0.0 0.00 0.21 0.01 89 1014.3
20200707014828 82 65 0.0 0.0 0.00 0.21 0.01 88 1014.4
20200707014508 82 65 0.0 0.0 0.00 0.21 0.01 86 1013.3
20200707014323 82 65 0.0 0.0 0.00 0.21 0.01 86 1014.2
20200707013822 82 65 0.0 0.0 0.00 0.21 0.01 85 1014.1
20200707013320 83 65 0.0 1.0 0.00 0.21 0.01 85 1014.1
20200707013133 82 65 0.0 2.0 0.00 0.21 0.01 85 1013.3
20200707012817 83 65 0.0 2.0 0.00 0.21 0.01 85 1014.2
20200707012316 83 74 0.0 4.0 0.00 0.21 0.01 86 1014.1
20200707011815 84 58 1.0 4.0 0.00 0.21 0.01 86 1014.1
20200707011548 84 63 0.0 0.0 0.00 0.21 0.01 87 1013.2
20200707011332 85 65 0.0 0.0 0.00 0.21 0.01 86 1014.0
20200707010833 85 17 0.0 1.0 0.00 0.21 0.01 84 1014.1
20200707010323 86 17 0.0 1.0 0.00 0.21 0.01 83 1014.0
20200707010100 86 17 0.0 1.0 0.00 0.21 0.01 84 1013.2
20200707005822 86 18 0.0 1.0 0.00 0.21 0.01 83 1014.1
20200707005322 87 19 0.0 1.0 0.00 0.36 0.01 82 1014.2
20200707004814 88 12 0.0 0.0 0.00 0.36 0.01 80 1014.1
20200707004640 87 354 0.0 0.0 0.00 0.36 0.01 80 1013.4
20200707004312 88 342 0.0 0.0 0.00 0.36 0.01 80 1014.1
20200707003832 88 343 0.0 3.0 0.00 0.36 0.01 80 1014.2
20200707003328 88 343 0.0 3.0 0.00 0.36 0.01 79 1014.2
20200707003237 88 11 0.0 3.0 0.00 0.36 0.01 78 1013.4
20200707002825 88 349 0.0 2.0 0.00 0.36 0.01 79 1014.2
20200707002321 89 342 1.0 2.0 0.00 0.36 0.01 78 1014.2
20200707001821 89 359 0.0 1.0 0.00 0.36 0.01 77 1014.2
20200707001552 88 356 0.0 0.0 0.00 0.36 0.01 77 1013.3
20200707001321 89 1 0.0 0.0 0.00 0.36 0.01 77 1014.1
20200707000819 89 293 0.0 0.0 0.00 0.36 0.01 76 1014.0
20200707000320 89 288 0.0 1.0 0.00 0.36 0.01 75 1013.9
20200707000046 89 289 0.0 1.0 0.00 0.36 0.01 74 1013.0
20200706235814 90 315 0.0 1.0 0.00 0.36 0.01 74 1013.8
20200706235316 90 335 0.0 2.0 0.00 0.58 0.01 74 1013.7
20200706234813 90 330 1.0 2.0 0.00 0.58 0.01 73 1013.7
20200706234507 90 335 0.0 2.0 0.00 0.57 0.01 73 1012.9
20200706234331 90 52 0.0 1.0 0.00 0.58 0.01 73 1013.7
20200706233828 91 333 0.0 1.0 0.00 0.58 0.01 71 1013.7
20200706233325 90 345 0.0 1.0 0.00 0.58 0.01 73 1013.7
20200706233155 90 345 0.0 4.0 0.00 0.57 0.01 73 1012.9
20200706232823 90 331 0.0 4.0 0.00 0.58 0.01 74 1013.8
20200706232321 90 41 0.0 3.0 0.00 0.58 0.01 72 1013.9
20200706231818 90 347 1.0 3.0 0.00 0.58 0.01 73 1013.8
20200706231625 90 354 0.0 2.0 0.00 0.57 0.01 72 1013.0
20200706231317 90 284 1.0 3.0 0.00 0.58 0.01 72 1013.9
20200706230814 90 277 1.0 3.0 0.00 0.58 0.01 72 1013.8
20200706230313 91 279 2.0 3.0 0.00 0.58 0.01 69 1013.7
20200706230047 91 252 0.0 3.0 0.00 0.57 0.01 70 1012.9
20200706225829 91 19 0.0 1.0 0.00 0.58 0.01 72 1013.8
20200706225326 90 254 0.0 3.0 0.00 0.61 0.01 73 1013.8
20200706224824 90 248 1.0 3.0 0.00 0.61 0.01 72 1013.7
20200706224607 90 221 1.0 3.0 0.00 0.61 0.01 72 1012.9
20200706224323 90 237 1.0 3.0 0.00 0.61 0.01 73 1013.7
20200706223822 90 254 1.0 4.0 0.00 0.61 0.01 72 1013.8
20200706223323 90 253 1.0 4.0 0.00 0.61 0.01 73 1013.7
20200706223038 89 263 1.0 4.0 0.00 0.61 0.01 74 1012.8
20200706222819 90 244 2.0 4.0 0.00 0.61 0.01 72 1013.7
20200706222316 90 256 1.0 2.0 0.00 0.61 0.01 72 1013.8
20200706221812 90 254 1.0 2.0 0.00 0.61 0.01 72 1013.8
20200706221541 90 226 1.0 2.0 0.00 0.61 0.01 70 1012.8
20200706221331 90 276 1.0 3.0 0.00 0.61 0.01 71 1013.8
20200706220830 90 242 1.0 3.0 0.00 0.61 0.01 71 1013.8
20200706220326 90 270 1.0 3.0 0.00 0.61 0.01 71 1013.8
20200706220042 90 236 0.0 3.0 0.00 0.61 0.01 70 1012.9
20200706215827 90 274 2.0 3.0 0.00 0.61 0.01 69 1013.8
20200706215322 90 270 2.0 4.0 0.00 0.61 0.01 70 1013.8
20200706214819 91 264 2.0 4.0 0.00 0.61 0.01 70 1013.7
20200706214731 91 268 2.0 7.0 0.00 0.61 0.01 68 1013.0
20200706214339 91 297 3.0 7.0 0.00 0.61 0.01 68 1013.8
20200706213830 91 288 1.0 7.0 0.00 0.61 0.01 67 1013.8
20200706213329 90 178 0.0 3.0 0.00 0.61 0.01 67 1013.8
20200706213143 90 76 0.0 3.0 0.00 0.61 0.01 67 1013.0
20200706212828 91 71 1.0 3.0 0.00 0.61 0.01 67 1013.9
20200706212325 90 349 0.0 2.0 0.00 0.61 0.01 68 1013.9
20200706211822 90 58 0.0 3.0 0.00 0.61 0.01 69 1013.9
20200706211517 90 53 1.0 3.0 0.00 0.61 0.01 68 1013.1
20200706211320 91 89 1.0 3.0 0.00 0.61 0.01 69 1013.9
20200706210820 91 65 1.0 2.0 0.00 0.61 0.01 67 1014.1
20200706210318 91 47 1.0 2.0 0.00 0.61 0.01 64 1014.2
20200706210145 91 347 0.0 3.0 0.00 0.61 0.01 66 1013.3
20200706205813 91 92 0.0 3.0 0.00 0.61 0.01 68 1014.2
20200706205330 92 94 1.0 3.0 0.00 0.61 0.01 68 1014.2
20200706204814 91 192 0.0 4.0 0.00 0.61 0.01 68 1014.2
20200706204508 91 200 2.0 4.0 0.00 0.61 0.01 68 1013.4
20200706204333 91 209 1.0 3.0 0.00 0.61 0.01 67 1014.2
20200706203827 91 139 0.0 3.0 0.00 0.61 0.01 68 1014.4
20200706203325 90 160 1.0 3.0 0.00 0.61 0.01 71 1014.5
20200706203118 90 193 1.0 3.0 0.00 0.61 0.01 70 1013.7
20200706202822 90 248 1.0 2.0 0.00 0.61 0.01 72 1014.5